Location: Follega
(52.8850°N, 5.7362°E)
Time: 21:18:37
(UTC+00:00)

Abrixas rocket - Pass Details

Date: 01 June 2020
Orbit: 342 x 347 km, 48.4° (Epoch: 11 July)

Event Time Altitude Azimuth Distance (km) Brightness Sun altitude
Rises 20:47:28 0° 268° (W) 2,166 6.4 -6.6°
Reaches altitude 10° 20:49:52 10° 249° (WSW) 1,320 5.0 -6.8°
Maximum altitude 20:52:00 18° 203° (SSW) 947 3.8 -7.0°
Drops below altitude 10° 20:54:06 10° 157° (SSE) 1,314 4.1 -7.2°
Enters shadow 20:54:12 10° 155° (SSE) 1,344 4.2 -7.2°
